Weather History for Quillayute, WA

Change the Weather History Date:

Wednesday, January 23, 2013

  Actual Average Record
Temperature  
Mean Temperature 40 °F 42 °F  
Max Temperature 46 °F 48 °F 59 °F (2005)
Min Temperature 33 °F 36 °F 7 °F (1969)
Degree Days  
Heating Degree Days 25 23  
Month to date heating degree days 541  
Since 1 July heating degree days 3019  
Cooling Degree Days 0 0  
Month to date cooling degree days 0  
Year to date cooling degree days 0  
Moisture  
Dew Point 41 °F    
Average Humidity 94    
Maximum Humidity 100    
Minimum Humidity 85    
Precipitation  
Precipitation 0.99 in 0.46 in 3.91 in (1998)
Month to date precipitation 11.12  
Year to date precipitation 11.12  
Sea Level Pressure  
Sea Level Pressure 29.90 in    
Wind  
Wind Speed 4 mph (South)    
Max Wind Speed 12 mph    
Max Gust Speed 31 mph    
Visibility 2 miles    
Events Fog , Rain    
T = Trace of Precipitation, MM = Missing Value Source: NWS Daily Summary

Daily Weather History Graph

Daily Weather History Graph

Search for Another Location

Airport:

Trip Planner

Search our weather history database for the weather conditions in past years. The results will help you decide how hot, cold, wet, or windy it might be!

Date:

Astronomy

Jan. 23, 2013 Rise Set
Actual Time 7:55 AM PST 5:05 PM PST
Civil Twilight 7:21 AM PST 5:39 PM PST
Nautical Twilight 6:43 AM PST 6:17 PM PST
Astronomical Twilight 6:07 AM PST 6:53 PM PST
Moon 2:16 PM PST (1/23) 5:15 AM PST (1/23)
Length of Visible Light 10h 17m
Length of Day
9h 09m
Waxing Gibbous, 90% of the Moon is Illuminated
Jan 23
Waxing Gibbous
Jan 26
Full
Feb 3
Last Quarter
Feb 9
New
Feb 17
First Quarter

Hourly Weather History & Observations

Time (PST) Temp. Windchill Dew Point Humidity Pressure Visibility Wind Dir Wind Speed Gust Speed Precip Events Conditions
12:10 AM 39.2 °F - 37.4 °F 93% 29.89 in 2.0 mi Calm Calm - 0.01 in Rain Light Rain
12:46 AM 39.2 °F - 37.4 °F 93% 29.88 in 3.0 mi Calm Calm - 0.04 in Rain Light Rain
12:53 AM 39.0 °F 36.8 °F 39.0 °F 100% 29.88 in 2.5 mi NNE 3.5 mph - 0.04 in Rain Light Rain
1:04 AM 39.2 °F 35.9 °F 39.2 °F 100% 29.87 in 3.0 mi North 4.6 mph - 0.01 in Rain Light Rain
1:26 AM 39.2 °F - - N/A% 29.88 in 1.8 mi Calm Calm - 0.03 in Rain Light Rain
1:45 AM 41.0 °F - 39.2 °F 93% 29.88 in 1.2 mi Calm Calm - 0.07 in Rain Rain
1:53 AM 42.1 °F - 41.0 °F 96% 29.89 in 1.5 mi Calm Calm - 0.09 in Rain Light Rain
2:08 AM 42.8 °F - 41.0 °F 93% 29.88 in 1.2 mi Calm Calm - 0.03 in Rain Light Rain
2:12 AM 42.8 °F - 41.0 °F 93% 29.88 in 1.5 mi Calm Calm - 0.04 in Rain Light Rain
2:23 AM 41.0 °F - 41.0 °F 100% 29.88 in 2.0 mi Calm Calm - 0.05 in Rain Light Rain
2:53 AM 44.1 °F 40.8 °F 43.0 °F 96% 29.88 in 2.0 mi SE 5.8 mph - 0.10 in Rain Light Rain
3:53 AM 45.0 °F 40.6 °F 43.0 °F 93% 29.86 in 3.0 mi SE 8.1 mph - 0.08 in Rain Light Rain
4:37 AM 44.6 °F 42.2 °F - N/A% 29.84 in 4.0 mi SE 4.6 mph - 0.03 in Rain Light Rain
4:53 AM 45.0 °F 41.8 °F - N/A% 29.84 in 4.0 mi SE 5.8 mph - 0.03 in Rain Light Rain
5:06 AM 44.6 °F 40.7 °F - N/A% 29.83 in 2.0 mi SE 6.9 mph - 0.00 in Rain Light Rain
5:53 AM 45.0 °F 42.6 °F 44.1 °F 97% 29.83 in 1.8 mi Variable 4.6 mph - 0.04 in Rain Light Rain
6:04 AM 44.6 °F 41.4 °F 44.6 °F 100% 29.82 in 1.8 mi Variable 5.8 mph - 0.01 in Rain Light Rain
6:09 AM 44.6 °F 40.7 °F 44.6 °F 100% 29.82 in 2.0 mi SE 6.9 mph - 0.02 in Rain Light Rain
6:26 AM 44.6 °F 40.7 °F 44.6 °F 100% 29.82 in 2.5 mi SE 6.9 mph - 0.03 in Rain Light Rain
6:53 AM 45.0 °F 42.6 °F 44.1 °F 97% 29.83 in 3.0 mi SE 4.6 mph - 0.05 in Rain Light Rain
7:16 AM 44.6 °F 40.2 °F - N/A% 29.83 in 2.5 mi SSE 8.1 mph - 0.02 in Rain Light Rain
7:53 AM 46.0 °F 41.9 °F - N/A% 29.82 in 2.5 mi SSE 8.1 mph - 0.07 in Rain Light Rain
8:00 AM 46.4 °F 43.5 °F - N/A% 29.81 in 2.5 mi SE 5.8 mph - 0.01 in Rain Light Rain
8:08 AM 46.4 °F 43.5 °F - N/A% 29.81 in 3.0 mi SSE 5.8 mph - 0.01 in Rain Light Rain
8:53 AM 46.0 °F 43.1 °F - N/A% 29.81 in 3.0 mi SE 5.8 mph - 0.04 in Rain Light Rain
9:09 AM 44.6 °F 42.2 °F - N/A% 29.81 in 2.5 mi Variable 4.6 mph - 0.01 in Rain Light Rain
9:31 AM 44.6 °F 43.1 °F 44.6 °F 100% 29.81 in 2.0 mi SSE 3.5 mph - 0.02 in Rain Light Rain
9:39 AM 44.6 °F 43.1 °F 44.6 °F 100% 29.81 in 1.8 mi South 3.5 mph - 0.03 in Rain Light Rain
9:53 AM 45.0 °F 42.6 °F 44.1 °F 97% 29.82 in 1.5 mi SE 4.6 mph - 0.05 in Rain Light Rain
10:01 AM 44.6 °F 42.2 °F 44.6 °F 100% 29.81 in 1.2 mi SE 4.6 mph - 0.01 in Rain Light Rain
10:10 AM 44.6 °F 42.2 °F 44.6 °F 100% 29.82 in 1.5 mi SSE 4.6 mph - 0.02 in Rain Light Rain
10:32 AM 44.6 °F - 44.6 °F 100% 29.82 in 1.5 mi Calm Calm - 0.03 in Rain Light Rain
10:53 AM 45.0 °F 42.6 °F 44.1 °F 97% 29.83 in 1.5 mi SSW 4.6 mph - 0.05 in Rain Light Rain
11:20 AM 44.6 °F 42.2 °F 44.6 °F 100% 29.83 in 1.2 mi South 4.6 mph - 0.01 in Rain Light Rain
11:34 AM 44.6 °F 43.1 °F 44.6 °F 100% 29.83 in 1.2 mi South 3.5 mph - 0.03 in Rain Light Rain
11:45 AM 44.6 °F 42.2 °F 44.6 °F 100% 29.83 in 1.5 mi South 4.6 mph - 0.04 in Rain Light Rain
11:53 AM 45.0 °F 41.8 °F 44.1 °F 97% 29.83 in 1.5 mi South 5.8 mph - 0.05 in Rain Light Rain
12:20 PM 44.6 °F 40.7 °F 44.6 °F 100% 29.83 in 1.2 mi South 6.9 mph - 0.02 in Rain Light Rain
12:24 PM 44.6 °F 41.4 °F 44.6 °F 100% 29.83 in 1.5 mi South 5.8 mph - 0.03 in Rain Light Rain
12:53 PM 44.1 °F 40.1 °F - N/A% 29.83 in 1.5 mi SSW 6.9 mph - 0.06 in Rain Light Rain
1:18 PM 44.6 °F - 44.6 °F 100% 29.83 in 2.5 mi Calm Calm - 0.03 in Rain Light Rain
1:30 PM 44.6 °F 42.2 °F 42.8 °F 93% 29.84 in 1.5 mi WSW 4.6 mph - 0.04 in Rain Light Rain
1:38 PM 44.6 °F - 42.8 °F 93% 29.84 in 1.0 mi Calm Calm - N/A Rain Rain
1:45 PM 44.6 °F - 42.8 °F 93% 29.84 in 1.2 mi Calm Calm - 0.06 in Rain Light Rain
1:53 PM 45.0 °F - 43.0 °F 93% 29.84 in 1.2 mi Calm Calm - 0.08 in Rain Rain
2:09 PM 44.6 °F 40.7 °F 42.8 °F 93% 29.84 in 1.5 mi West 6.9 mph - 0.01 in Rain Light Rain
2:16 PM 44.6 °F 41.4 °F 42.8 °F 93% 29.84 in 1.2 mi West 5.8 mph - 0.02 in Rain Light Rain
2:35 PM 46.4 °F - 42.8 °F 87% 29.85 in 1.5 mi Calm Calm - 0.05 in Rain Light Rain
2:46 PM 46.4 °F - 42.8 °F 87% 29.85 in 2.5 mi Calm Calm - 0.06 in Rain Light Rain
2:53 PM 46.0 °F - 43.0 °F 89% 29.86 in 2.5 mi Calm Calm - 0.06 in Rain Light Rain
3:08 PM 44.6 °F 43.1 °F 42.8 °F 93% 29.86 in 3.0 mi ESE 3.5 mph - 0.00 in Rain Light Rain
3:21 PM 44.6 °F - 42.8 °F 93% 29.86 in 2.5 mi Calm Calm - 0.01 in Rain Light Rain
3:53 PM 45.0 °F - 43.0 °F 93% 29.88 in 2.0 mi Calm Calm - 0.02 in Rain Light Rain
3:56 PM 44.6 °F - 42.8 °F 93% 29.88 in 1.8 mi Calm Calm - 0.00 in Rain Light Rain
4:07 PM 44.6 °F - 42.8 °F 93% 29.88 in 1.5 mi Calm Calm - 0.02 in Rain Light Rain
4:17 PM 44.6 °F - 42.8 °F 93% 29.89 in 1.2 mi Calm Calm - 0.03 in Rain Light Rain
4:25 PM 44.6 °F 42.2 °F 42.8 °F 93% 29.89 in 0.5 mi South 4.6 mph - 0.04 in Fog , Rain Light Rain
4:38 PM 44.6 °F - 42.8 °F 93% 29.90 in 1.5 mi Calm Calm - 0.05 in Rain Light Rain
4:49 PM 44.6 °F - 42.8 °F 93% 29.91 in 1.0 mi Calm Calm - 0.05 in Rain Light Rain
4:53 PM 44.1 °F - 42.1 °F 93% 29.92 in 0.8 mi Calm Calm - 0.05 in Rain Light Rain
5:11 PM 44.6 °F 40.7 °F 42.8 °F 93% 29.92 in 1.0 mi Variable 6.9 mph - 0.03 in Rain Light Rain
5:16 PM 44.6 °F 41.4 °F 42.8 °F 93% 29.93 in 2.0 mi West 5.8 mph - 0.04 in Rain Light Rain
5:23 PM 44.6 °F 40.7 °F 41.0 °F 87% 29.93 in 6.0 mi West 6.9 mph - 0.04 in   Overcast
5:53 PM 44.1 °F 39.5 °F 41.0 °F 89% 29.95 in 4.0 mi West 8.1 mph - 0.04 in   Overcast
6:03 PM 44.6 °F 40.2 °F 41.0 °F 87% 29.95 in 4.0 mi West 8.1 mph - 0.00 in   Overcast
6:53 PM 44.1 °F 40.8 °F 39.9 °F 85% 29.98 in 6.0 mi West 5.8 mph - 0.00 in   Overcast
7:36 PM 42.8 °F 40.1 °F 39.2 °F 87% 30.00 in 5.0 mi West 4.6 mph - N/A   Mostly Cloudy
7:53 PM 41.0 °F 38.0 °F 37.9 °F 89% 30.02 in 5.0 mi West 4.6 mph - N/A   Mostly Cloudy
8:53 PM 39.9 °F - 37.0 °F 89% 30.06 in 4.0 mi Calm Calm - N/A   Scattered Clouds
9:53 PM 36.0 °F - 35.1 °F 97% 30.09 in 4.0 mi Calm Calm - N/A   Partly Cloudy
10:12 PM 35.6 °F - 33.8 °F 93% 30.09 in 1.8 mi Calm Calm - N/A   Clear
10:23 PM 35.6 °F - 33.8 °F 93% 30.10 in 3.0 mi Calm Calm - N/A   Mostly Cloudy
10:29 PM 35.6 °F - 33.8 °F 93% 30.10 in 1.8 mi Calm Calm - N/A   Scattered Clouds
10:38 PM 35.6 °F 32.8 °F 33.8 °F 93% 30.10 in 1.0 mi ENE 3.5 mph - N/A   Scattered Clouds
10:45 PM 35.6 °F - 33.8 °F 93% 30.10 in 0.5 mi Calm Calm - N/A Fog Fog
10:53 PM 35.1 °F 32.2 °F 33.1 °F 92% 30.11 in 1.0 mi East 3.5 mph - N/A   Clear
11:06 PM 35.6 °F - 33.8 °F 93% 30.11 in 0.8 mi Calm Calm - N/A   Scattered Clouds
11:25 PM 33.8 °F 30.8 °F 32.0 °F 93% 30.12 in 1.8 mi East 3.5 mph - N/A   Partly Cloudy
11:32 PM 35.6 °F 32.8 °F 33.8 °F 93% 30.12 in 3.0 mi East 3.5 mph - N/A   Partly Cloudy
11:44 PM 33.8 °F - 32.0 °F 93% 30.13 in 1.8 mi Calm Calm - N/A   Clear
11:49 PM 33.8 °F - 32.0 °F 93% 30.13 in 0.8 mi Calm Calm - N/A   Partly Cloudy
11:53 PM 33.1 °F - 30.9 °F 92% 30.14 in 0.5 mi Calm Calm - N/A Fog Fog